sat.trackr.live / text

‹ back to catalog

UNKNOWN

NORAD 87304

UNKNOWN UNKNOWN UNKNOWN

§ Identity

Operator
Country
Launch date
Launch site
Launch vehicle
Mass (kg)
RCS (m²)

External: N2YO · Heavens-Above

§ Orbital elements

Epoch: 2026-09-17T08:38:40.056576Z

Period
97.54 min
Inclination
74.0178°
Eccentricity
0.0016738
Mean motion
14.76314518 rev/d
Perigee alt
629.2 km
Apogee alt
652.7 km
Semi-major
7,019.1 km
B*
1.2709e-4
RAAN
135.0693°
Arg perigee
30.0900°
Mean anomaly
330.1232°
Rev number
68,758

§ Raw data

UNKNOWN1 87304U          26260.36018584  .00000849  00000+0  12709-3 0  99952 87304  74.0178 135.0693 0016738  30.0900 330.1232 14.76314518687583

JSON: /api/v1/satellites/87304 · /tle

For live sub-satellite position, see the globe view (requires WebGL).

§ Visibility from observer

Set your observer location to see the next 7 days of passes ≥ 10°. The values pass through the URL so the page stays shareable.

No JS? Fill the form by hand. The geolocation button needs JavaScript.